Meteo pe oră la Dabrowiec

Astăzi, 14 Aprilie, Miercuri

Timp Temperatura Precipitaţii Vânt Presiune Umiditate
00:00 -1°C° 0.8 mm 5 m/s 734 mmHg 96%
01:00 -2°C° 0 mm 5 m/s 734 mmHg 97%
02:00 -2°C° 0.9 mm 5 m/s 734 mmHg 97%
03:00 -2°C° 0.9 mm 4 m/s 734 mmHg 98%
04:00 -2°C° 0.9 mm 4 m/s 734 mmHg 98%
05:00 -2°C° 0.8 mm 4 m/s 734 mmHg 98%
06:00 -2°C° 0.8 mm 4 m/s 734 mmHg 98%
07:00 -2°C° 0 mm 4 m/s 734 mmHg 99%
08:00 -2°C° 0.4 mm 5 m/s 734 mmHg 98%
09:00 -2°C° 0.4 mm 5 m/s 734 mmHg 97%
10:00 -2°C° 0.4 mm 6 m/s 734 mmHg 96%
11:00 -2°C° 0.2 mm 6 m/s 734 mmHg 94%
12:00 -2°C° 0.2 mm 6 m/s 734 mmHg 92%
13:00 -1°C° 0.2 mm 6 m/s 734 mmHg 90%
14:00 0°C° 0.2 mm 5 m/s 734 mmHg 90%
15:00 0°C° 0.2 mm 5 m/s 734 mmHg 90%
16:00 0°C° 0.2 mm 5 m/s 734 mmHg 90%
17:00 0°C° 0.1 mm 4 m/s 734 mmHg 92%
18:00 -1°C° 0.1 mm 4 m/s 734 mmHg 94%
19:00 -1°C° 0.1 mm 4 m/s 734 mmHg 97%
20:00 -1°C° 0.2 mm 4 m/s 734 mmHg 97%
21:00 -1°C° 0.2 mm 4 m/s 733 mmHg 97%
22:00 -1°C° 0.2 mm 4 m/s 733 mmHg 98%
23:00 -1°C° 0.4 mm 4 m/s 733 mmHg 98%

Mâine, 15 Aprilie, Joi

Timp Temperatura Precipitaţii Vânt Presiune Umiditate
00:00 -1°C° 0.4 mm 4 m/s 733 mmHg 98%
01:00 -2°C° 0.4 mm 5 m/s 733 mmHg 97%
02:00 -2°C° 0.4 mm 5 m/s 733 mmHg 97%
03:00 -2°C° 0.4 mm 5 m/s 733 mmHg 97%
04:00 -2°C° 0.4 mm 5 m/s 733 mmHg 98%
05:00 -2°C° 0.5 mm 5 m/s 733 mmHg 98%
06:00 -2°C° 0.5 mm 5 m/s 733 mmHg 98%
07:00 -2°C° 0.5 mm 5 m/s 733 mmHg 98%
08:00 -2°C° 0.5 mm 5 m/s 733 mmHg 98%
09:00 -2°C° 0.5 mm 5 m/s 733 mmHg 98%
10:00 -2°C° 0.5 mm 5 m/s 733 mmHg 99%
11:00 -2°C° 0.5 mm 4 m/s 733 mmHg 99%
12:00 -2°C° 0.5 mm 4 m/s 733 mmHg 99%
13:00 -2°C° 0.5 mm 4 m/s 733 mmHg 99%
14:00 -2°C° 0.2 mm 4 m/s 732 mmHg 99%
15:00 -2°C° 0.2 mm 4 m/s 732 mmHg 98%
16:00 -2°C° 0.2 mm 4 m/s 732 mmHg 98%
17:00 -2°C° 0.1 mm 4 m/s 732 mmHg 98%
18:00 -2°C° 0.1 mm 4 m/s 732 mmHg 98%
19:00 -1°C° 0.1 mm 3 m/s 732 mmHg 98%
20:00 -1°C° 0.1 mm 3 m/s 732 mmHg 98%
21:00 -1°C° 0.1 mm 3 m/s 732 mmHg 98%
22:00 -1°C° 0.1 mm 3 m/s 732 mmHg 98%
23:00 -1°C° 0.1 mm 3 m/s 732 mmHg 98%

Poimâine, 16 Aprilie, Vineri

Timp Temperatura Precipitaţii Vânt Presiune Umiditate
00:00 -1°C° 0.1 mm 3 m/s 732 mmHg 98%
01:00 -1°C° 0.1 mm 3 m/s 732 mmHg 98%
02:00 -2°C° 0.1 mm 4 m/s 732 mmHg 98%
03:00 -2°C° 0.1 mm 4 m/s 732 mmHg 98%
04:00 -2°C° 0.1 mm 4 m/s 732 mmHg 98%
05:00 -2°C° 0.1 mm 4 m/s 732 mmHg 98%
06:00 -2°C° 0.1 mm 4 m/s 732 mmHg 98%
07:00 -2°C° 0.1 mm 4 m/s 732 mmHg 98%
08:00 -2°C° 0.1 mm 4 m/s 732 mmHg 98%
09:00 -1°C° 0.1 mm 4 m/s 732 mmHg 98%
10:00 -1°C° 0.1 mm 4 m/s 732 mmHg 99%
11:00 -1°C° 0 mm 4 m/s 732 mmHg 99%
12:00 -1°C° 0 mm 4 m/s 733 mmHg 99%
13:00 -1°C° 0 mm 4 m/s 733 mmHg 99%
14:00 -1°C° 0.2 mm 4 m/s 733 mmHg 99%
15:00 -1°C° 0.2 mm 4 m/s 733 mmHg 99%
16:00 0°C° 0.2 mm 3 m/s 733 mmHg 99%
17:00 0°C° 0.5 mm 3 m/s 733 mmHg 99%
18:00 0°C° 0.5 mm 3 m/s 733 mmHg 99%
19:00 0°C° 0.5 mm 3 m/s 733 mmHg 99%
20:00 0°C° 0.2 mm 3 m/s 733 mmHg 99%
21:00 0°C° 0.2 mm 3 m/s 733 mmHg 99%
22:00 0°C° 0.2 mm 3 m/s 733 mmHg 99%
23:00 0°C° 0.1 mm 3 m/s 733 mmHg 99%

17 Aprilie, Sâmbătă

Timp Temperatura Precipitaţii Vânt Presiune Umiditate
00:00 0°C° 0.1 mm 3 m/s 733 mmHg 99%
01:00 0°C° 0.1 mm 3 m/s 733 mmHg 99%
02:00 0°C° 0.3 mm 3 m/s 733 mmHg 99%
03:00 +1°C° 0.3 mm 3 m/s 733 mmHg 99%
04:00 +1°C° 0.3 mm 3 m/s 733 mmHg 99%
05:00 +1°C° 0.3 mm 3 m/s 732 mmHg 99%
06:00 +1°C° 0.3 mm 3 m/s 732 mmHg 99%
07:00 +1°C° 0.3 mm 3 m/s 732 mmHg 99%
08:00 +2°C° 0.2 mm 2 m/s 732 mmHg 99%
09:00 +3°C° 0.2 mm 2 m/s 732 mmHg 99%
10:00 +3°C° 0.2 mm 2 m/s 732 mmHg 99%
11:00 +3°C° 0.1 mm 2 m/s 733 mmHg 98%
12:00 +4°C° 0.1 mm 2 m/s 733 mmHg 98%
13:00 +4°C° 0.1 mm 2 m/s 733 mmHg 97%
14:00 +6°C° 0.1 mm 1 m/s 733 mmHg 97%
15:00 +6°C° 0.1 mm 1 m/s 733 mmHg 97%
16:00 +6°C° 0.1 mm 1 m/s 733 mmHg 97%
17:00 +6°C° 0 mm 1 m/s 733 mmHg 97%
18:00 +6°C° 0 mm 1 m/s 733 mmHg 97%
19:00 +6°C° 0 mm 1 m/s 733 mmHg 98%
20:00 +5°C° 0 mm 1 m/s 733 mmHg 98%
21:00 +5°C° 0 mm 1 m/s 733 mmHg 98%
22:00 +5°C° 0 mm 1 m/s 733 mmHg 98%
23:00 +5°C° 0 mm 1 m/s 733 mmHg 98%

18 Aprilie, Duminică

Timp Temperatura Precipitaţii Vânt Presiune Umiditate
00:00 +5°C° 0 mm 1 m/s 733 mmHg 98%
01:00 +5°C° 0 mm 1 m/s 733 mmHg 99%
02:00 +4°C° 0 mm 2 m/s 733 mmHg 98%
03:00 +3°C° 0 mm 2 m/s 733 mmHg 98%
04:00 +3°C° 0 mm 2 m/s 732 mmHg 98%
05:00 +4°C° 0 mm 2 m/s 733 mmHg 95%
06:00 +4°C° 0 mm 2 m/s 733 mmHg 92%
07:00 +4°C° 0 mm 3 m/s 733 mmHg 89%
08:00 +5°C° 0 mm 3 m/s 733 mmHg 84%
09:00 +6°C° 0 mm 4 m/s 733 mmHg 79%
10:00 +7°C° 0 mm 4 m/s 733 mmHg 74%
11:00 +8°C° 0 mm 4 m/s 733 mmHg 72%
12:00 +8°C° 0 mm 4 m/s 733 mmHg 70%
13:00 +8°C° 0 mm 4 m/s 733 mmHg 69%
14:00 +9°C° 0 mm 3 m/s 733 mmHg 71%
15:00 +9°C° 0 mm 3 m/s 733 mmHg 72%
16:00 +9°C° 0 mm 3 m/s 732 mmHg 74%
17:00 +8°C° 0 mm 3 m/s 732 mmHg 77%
18:00 +8°C° 0 mm 3 m/s 733 mmHg 79%
19:00 +7°C° 0 mm 3 m/s 733 mmHg 82%
20:00 +7°C° 0 mm 2 m/s 733 mmHg 83%
21:00 +7°C° 0 mm 2 m/s 733 mmHg 84%
22:00 +7°C° 0 mm 2 m/s 733 mmHg 84%
23:00 +7°C° 0 mm 2 m/s 733 mmHg 85%

19 Aprilie, Luni

Timp Temperatura Precipitaţii Vânt Presiune Umiditate
00:00 +6°C° 0 mm 2 m/s 732 mmHg 86%
01:00 +6°C° 0 mm 2 m/s 732 mmHg 87%
02:00 +6°C° 0.2 mm 2 m/s 732 mmHg 89%
03:00 +6°C° 0.2 mm 2 m/s 732 mmHg 91%
04:00 +6°C° 0.2 mm 2 m/s 732 mmHg 93%
05:00 +5°C° 0.3 mm 3 m/s 732 mmHg 93%
06:00 +5°C° 0.3 mm 3 m/s 732 mmHg 94%
07:00 +5°C° 0.3 mm 4 m/s 732 mmHg 94%
08:00 +5°C° 0.3 mm 4 m/s 732 mmHg 94%
09:00 +5°C° 0.3 mm 4 m/s 732 mmHg 94%
10:00 +6°C° 0.3 mm 5 m/s 732 mmHg 94%
11:00 +6°C° 0.4 mm 5 m/s 732 mmHg 94%
12:00 +6°C° 0.4 mm 4 m/s 731 mmHg 94%
13:00 +6°C° 0.4 mm 4 m/s 731 mmHg 94%
14:00 +6°C° 0.1 mm 4 m/s 731 mmHg 93%
15:00 +6°C° 0.1 mm 4 m/s 731 mmHg 93%
16:00 +6°C° 0.1 mm 4 m/s 731 mmHg 92%
17:00 +7°C° 0 mm 3 m/s 731 mmHg 93%
18:00 +7°C° 0 mm 3 m/s 731 mmHg 94%
19:00 +7°C° 0 mm 3 m/s 731 mmHg 95%
20:00 +7°C° 0 mm 3 m/s 731 mmHg 95%
21:00 +7°C° 0 mm 3 m/s 731 mmHg 95%
22:00 +7°C° 0 mm 3 m/s 731 mmHg 95%
23:00 +5°C° 0 mm 3 m/s 730 mmHg 95%
Arată mai mult

Formular de consimțământ

Meteoprog și furnizorii noștri de servicii pot stoca și accesa date personale, precum cookies, identificatori de dispozitiv sau alte tehnologii similare pe dispozitivul dumneavoastră și procesa astfel de date pentru a personaliza conținutul și reclamele, dar și pentru a oferi caracteristici de social media și pentru a analiza traficul.

  • Stocarea și/sau accesarea informațiilor pe dispozitivul dumneavoastră

    Cookies, identificatori de dispozitiv sau alte informații pot fi stocate sau accesate pe dispozitiv în scopurile indicate mai sus.

  • Reclame și conținut personalizat, evaluarea reclamelor și a conținutului, informații despre audiențe și dezvoltarea produselor

    Reclamele și conținutul pot fi personalizate pe baza unui profil. Pot fi adăugate date suplimentare pentru a personaliza mai bine reclamele și conținutul. Performanța reclamelor și conținutului poate fi măsurată. Pot fi obținute informații despre utilizatorii care au văzut reclamele și conținutul. Aceste date pot fi utilizate pentru a dezvolta sau îmbunătăți experiența utilizatorilor, sistemele și software-ul.

Dând clic pe ‘Sunt de acord’, permiteți utilizarea cookie-urilor menționate, a identificatorilor de dispozitiv, balizelor web sau altor tehnologii similare. Setările pot fi modificate din browser-ul dispozitivului dumneavoastră.

În anumite scopuri, interesele legitime pot prima asupra consimțământului. Puteți citi mai multe informații în acest sens în Politica privind Confidențialitatea Datelor și Cookie.